Hayward, WI

2:02 AM CDT on August 21, 2017 (GMT -0500)
Sawyer County

Weather History for KHYR - November, 2013

Change the Weather History Date:

Friday, November 8, 2013

  Actual Average Record
Temperature  
Mean Temperature 26 °F -  
Max Temperature 39 °F 41 °F 70 °F (1999)
Min Temperature 12 °F 27 °F -4 °F (2003)
Degree Days  
Heating Degree Days 40    
Moisture  
Dew Point 23 °F    
Average Humidity 78    
Maximum Humidity 92    
Minimum Humidity 65    
Precipitation  
Precipitation 0.09 in - - ()
Sea Level Pressure  
Sea Level Pressure 29.97 in    
Wind  
Wind Speed 4 mph (SSE)    
Max Wind Speed 16 mph    
Max Gust Speed 31 mph    
Visibility 9 miles    
Events Rain , Snow    
Averages and records for this station are not official NWS values.
T = Trace of Precipitation, MM = Missing Value Source: NWS Daily Summary

Daily Weather History Graph

Daily Weather History Graph

Search for Another Location

Airport or City:

Trip Planner

Search our weather history database for the weather conditions in past years. The results will help you decide how hot, cold, wet, or windy it might be!

Date:

Astronomy

Nov. 08, 2013 Rise Set
Actual Time 6:56 AM CST 4:41 PM CST
Civil Twilight 6:24 AM CST 5:13 PM CST
Nautical Twilight 5:49 AM CST 5:49 PM CST
Astronomical Twilight 5:14 AM CST 6:24 PM CST
Moon 11:52 AM CST (11/8) 10:04 PM CST (11/8)
Length of Visible Light 10h 48m
Length of Day
9h 44m
Waxing Crescent, 33% of the Moon is Illuminated
Nov 8
Waxing Crescent
Nov 9
First Quarter
Nov 17
Full
Nov 25
Last Quarter
Dec 2
New

Hourly Weather History & Observations

Time (CST) Temp. Windchill Dew Point Humidity Pressure Visibility Wind Dir Wind Speed Gust Speed Precip Events Conditions
12:53 AM 15.1 °F - 10.9 °F 84% 30.22 in 10.0 mi Calm Calm - N/A   Clear
1:53 AM 15.1 °F - 10.9 °F 84% 30.21 in 10.0 mi Calm Calm - N/A   Clear
2:53 AM 15.1 °F - 10.0 °F 80% 30.22 in 10.0 mi Calm Calm - N/A   Clear
3:53 AM 12.9 °F - 9.0 °F 84% 30.23 in 10.0 mi Calm Calm - N/A   Clear
4:53 AM 12.9 °F - 9.0 °F 84% 30.23 in 10.0 mi Calm Calm - N/A   Clear
5:53 AM 12.0 °F - 8.1 °F 84% 30.23 in 10.0 mi Calm Calm - N/A   Clear
6:53 AM 12.0 °F - 8.1 °F 84% 30.22 in 10.0 mi Calm Calm - N/A   Clear
7:53 AM 16.0 °F - 12.9 °F 88% 30.21 in 10.0 mi Calm Calm - N/A   Clear
8:53 AM 25.0 °F - 23.0 °F 92% 30.20 in 7.0 mi Calm Calm - N/A   Clear
9:53 AM 30.0 °F 25.2 °F 26.1 °F 85% 30.17 in 2.5 mi SSE 4.6 mph - N/A   Clear
10:10 AM 30.2 °F 22.6 °F 26.6 °F 86% 30.11 in 8.0 mi SE 8.1 mph - N/A   Clear
10:53 AM 32.0 °F 25.6 °F 26.1 °F 79% 30.15 in 8.0 mi SSE 6.9 mph - N/A   Clear
11:53 AM 33.1 °F 25.5 °F 25.0 °F 72% 30.11 in 10.0 mi SSE 9.2 mph - N/A   Clear
12:53 PM 33.1 °F 25.5 °F 26.1 °F 75% 30.07 in 9.0 mi South 9.2 mph - N/A   Partly Cloudy
1:53 PM 34.0 °F 28.8 °F 27.0 °F 75% 30.03 in 9.0 mi SSE 5.8 mph - N/A   Overcast
2:53 PM 35.1 °F 27.9 °F 27.0 °F 72% 29.98 in 8.0 mi SE 9.2 mph - N/A   Overcast
3:07 PM 35.6 °F 29.2 °F 28.4 °F 75% 29.89 in 2.0 mi East 8.1 mph - 0.01 in Snow Light Snow
3:19 PM 33.8 °F 27.0 °F 28.4 °F 81% 29.91 in 6.0 mi South 8.1 mph - 0.02 in Rain Light Rain
3:53 PM 34.0 °F 29.8 °F 28.9 °F 82% 29.94 in 10.0 mi Variable 4.6 mph - 0.02 in   Overcast
4:53 PM 35.1 °F 26.9 °F 28.0 °F 76% 29.88 in 10.0 mi ESE 11.5 mph - N/A   Mostly Cloudy
5:53 PM 37.0 °F 29.3 °F 26.1 °F 65% 29.86 in 10.0 mi SSE 11.5 mph 21.9 mph N/A   Overcast
6:53 PM 37.0 °F 28.1 °F 26.1 °F 65% 29.83 in 10.0 mi SE 15.0 mph 27.6 mph N/A   Overcast
7:53 PM 37.9 °F 28.9 °F 27.0 °F 65% 29.77 in 10.0 mi SSE 16.1 mph 31.1 mph N/A   Overcast
8:53 PM 37.9 °F 28.9 °F 28.9 °F 70% 29.74 in 10.0 mi SSE 16.1 mph 23.0 mph N/A   Overcast
9:53 PM 39.0 °F 32.8 °F 28.9 °F 67% 29.70 in 10.0 mi SSE 9.2 mph 17.3 mph 0.00 in Rain Light Rain
10:17 PM 39.2 °F 31.6 °F 30.2 °F 70% 29.65 in 8.0 mi South 12.7 mph 20.7 mph 0.02 in Rain Light Rain
10:51 PM 37.4 °F 30.8 °F 30.2 °F 75% 29.63 in 10.0 mi SSE 9.2 mph - 0.03 in   Overcast
10:53 PM 37.9 °F 30.5 °F 30.9 °F 76% 29.67 in 10.0 mi South 11.5 mph 17.3 mph 0.03 in   Overcast
11:12 PM 37.4 °F 30.8 °F 30.2 °F 75% 29.61 in 10.0 mi SSE 9.2 mph 16.1 mph N/A   Overcast
11:29 PM 37.4 °F 30.8 °F 30.2 °F 75% 29.61 in 10.0 mi South 9.2 mph - 0.00 in Rain Light Rain
11:53 PM 36.0 °F 29.6 °F 33.1 °F 89% 29.65 in 7.0 mi South 8.1 mph - 0.04 in Rain Rain